Regional Weather Roundup
Issued by NWS

Home | Current Version | Previous Version | Graphics & Text | Print | Product List | Glossary On
Versions: 1 2 3 4 5 6 7 8 9 10 11 12 13 14 15 16 17 18 19 20 21 22 23 24 25 26 27 28 29 30 31 32 33 34 35 36 37 38 39 40 41 42 43 44 45 46 47 48 49 50
000
ASUS43 KDTX 191610
RWRMI
MICHIGAN HOURLY REGIONAL WEATHER ROUNDUP
NATIONAL WEATHER SERVICE DETROIT/PONTIAC MI
1200 PM EDT FRI SEP 19 2014

NOTE: "FAIR" INDICATES FEW OR NO CLOUDS BELOW 12,000 FEET WITH NO
SIGNIFICANT WEATHER AND/OR OBSTRUCTION TO VISIBILITY.

MIZ047>049-052>055-059>063-066>070-074>076-081>083-191700-
SOUTHEAST LOWER MICHIGAN

CITY           SKY/WX    TMP DP  RH WIND       PRES   REMARKS
ADRIAN         SUNNY     63  50  62 SE5       30.24F
ALMA           SUNNY     59  48  66 SE8       30.22F
ANN ARBOR      SUNNY     61  45  55 CALM      30.23F
BAD AXE        MOSUNNY   59  49  70 S12       30.25F
CARO           MOSUNNY   59  48  65 SE9       30.23F
DETROIT CITY   SUNNY     61  49  64 SE5       30.24F
DETROIT        PTSUNNY   60  42  51 CALM      30.25F
FLINT          SUNNY     60  46  59 S6        30.24F
GROSSE ILE     SUNNY     59  43  55 E3        30.23F
HILLSDALE      SUNNY     63  52  66 S3        30.22F
HOWELL         SUNNY     59  44  56 E3        30.23F

CITY           SKY/WX    TMP DP  RH WIND       PRES   REMARKS
JACKSON        SUNNY     62  51  67 SE7       30.23F
LAMBERTVILLE   SUNNY     63  50  63 CALM      30.24F
LANSING        SUNNY     61  49  64 SE8       30.23F
LAPEER         FAIR      59  47  63 S5        30.24F
MASON          SUNNY     61  49  66 SE7       30.23F
MONROE         SUNNY     63  46  55 CALM      30.23F
MT. CLEMENS    PTSUNNY   56  52  85 E7        30.23F
PONTIAC        MOSUNNY   59  41  51 CALM      30.24F
PORT HOPE        N/A     60  48  64 VRB5      30.23F
PORT HURON     SUNNY     61  50  67 SE7       30.24F
TRI CITIES     SUNNY     58  45  62 S8        30.24F
TROY           SUNNY     60  47  62 SE3       30.25F
SAGINAW HB     PTSUNNY   59  45  58 S6        30.23F
$$
MIZ043>046-050>051-056>058-064>065-071>073-077>080-191700-
SOUTHWEST LOWER MICHIGAN

CITY           SKY/WX    TMP DP  RH WIND       PRES   REMARKS
BATTLE CREEK   SUNNY     63  52  67 SE7       30.22F
BENTON HARBOR  SUNNY     63  53  70 S9        30.17F
BIG RAPIDS     MOSUNNY   59  53  80 SE13      30.18F
COLDWATER      SUNNY     64  54  69 S9        30.21F
FREMONT        CLOUDY    55  52  89 SE7       30.18F FOG
HOLLAND        MOSUNNY   65  54  67 SE13      30.18F
GRAND RAPIDS   MOSUNNY   64  55  72 SE10      30.21F
IONIA          FAIR      62  52  70 S10       30.21F
KALAMAZOO      SUNNY     64  53  67 S9        30.21F
LUDINGTON      PTSUNNY   59  53  80 S7        30.16S
MARSHALL       SUNNY     62  52  69 S5        30.22F
MOUNT PLEASANT SUNNY     59  47  66 SE9       30.21F
MUSKEGON       PTSUNNY   64  52  64 SE10      30.18F
SOUTH HAVEN    SUNNY     65  54  69 S9        30.18F
$$
MIZ016>042-191700-
NORTHERN LOWER MICHIGAN

CITY           SKY/WX    TMP DP  RH WIND       PRES   REMARKS
ALPENA         MOSUNNY   57  44  62 S13       30.21F
BEAVER ISLAND  PTSUNNY   60  51  73 S12G18    30.11F
BELLAIRE       PTSUNNY   61  48  62 S10G16    30.14F
CADILLAC       MOSUNNY   58  50  74 S9G17     30.16F
CHARLEVOIX     PTSUNNY   62  51  68 S10G20    30.15S
FRANKFORT      PTSUNNY   64  51  62 S10G17    30.13S
GAYLORD        MOSUNNY   57  46  66 S15       30.16F
GRAYLING       MOSUNNY   59  47  65 S10G17    30.19F
HARBOR SPRINGS PTSUNNY   62  49  62 SE3       30.14S
HOUGHTON LAKE  MOSUNNY   57  46  66 SE13      30.20F
MANISTEE       PTSUNNY   59  50  72 S9        30.15S
OSCODA         MOSUNNY   57  44  60 S9G17     30.22F
PELLSTON       PTSUNNY   60  49  66 SE9       30.14F
ROGERS CITY    PTSUNNY   56  48  74 S14       30.19F
TRAVERSE CITY  CLOUDY    64  50  60 S9G17     30.12F
$$
MIZ007>008-015-191700-
EASTERN UPPER MICHIGAN

CITY           SKY/WX    TMP DP  RH WIND       PRES   REMARKS
KINROSS        CLOUDY    54  46  76 SE16      30.13F
MACKINAC ISLAN PTSUNNY   56  46  71 SE9G18    30.14F
NEWBERRY       CLOUDY    54  49  85 S12G20    30.09F
S. S. MARIE    CLOUDY    52  44  74 SE14      30.12F
MUNISING         N/A     62  53  72 S14G22    30.00F
$$
MIZ004>006-011>014-085-191700-
CENTRAL UPPER MICHIGAN

CITY           SKY/WX    TMP DP  RH WIND       PRES   REMARKS
MANISTIQUE     CLOUDY    56  53  89 S13G22    30.08F
ESCANABA       CLOUDY    59  54  82 S12G21    30.05F
MENOMINEE      PTSUNNY   63  55  77 SW16G23   30.04F
SAWYER-GWINN   CLOUDY    55  50  82 S22G31    30.00F
$$
MIZ001>003-009>011-084-191700-
WESTERN UPPER MICHIGAN

CITY           SKY/WX    TMP DP  RH WIND       PRES   REMARKS
IRON MOUNTAIN  MOSUNNY   57  49  74 S16       30.00F
HOUGHTON         N/A    N/A N/A N/A MISG      29.88F
COPPER HARBOR    N/A     61  52  72 SW10G18   29.87F
IRONWOOD       CLOUDY    61  50  67 S17G29    29.82F
$$

ABBREVIATIONS USED IN REMARKS
   TC - TEMPERATURE IN CELSIUS
  WCI - WIND CHILL INDEX
   HX - HEAT INDEX
  VSB - VISIBILITY



USA.gov is the U.S. government's official web portal to all federal, state and local government web resources and services.